Torna al catalogo

SL-14 DEB

AttivoPO
NORAD 45356·DEBRIS·🇷🇺 Russia

Lanciato Aug 15, 1991 da Plesetsk Cosmodrome

Loading…

Prossimi Passaggi (prossime 24 ore)

TLE

AggiornatoSource: Space-Track

Epoca: Sep 14, 2026, 10:49 UTC

1 45356U 91056CQ  26257.45081729  .00000308  00000-0  65660-3 0  9999
2 45356  82.6105  63.5126 0041809 100.0574 260.5275 13.27013999316279

Traccia SL-14 DEB in tempo reale con AllMySat

Download on the App Store